www.pogodaiklimat.ru

Погода и климат >> Архив погоды >> Италия >> Тренто


ПОГОДА в Тренто

  • Прогноз погоды в Тренто
  • Монитор погоды в Тренто

АРХИВ ПОГОДЫ в Тренто

Время (UTC), дата Ветер
(напр.,м/с)
 
Видим.   Явления Облачность Т
(С)
Тd
(С)
f
(%)
Тe
(С)
Тes
(С)
Комфортность P
(гПа)
Po
(гПа)
Тmin
(С)
Tmax
(С)
R
(мм)
R24
(мм)
S
(см)
11 15.01 Ю 2 н/о н/о +9.0 -7.8 30 +8 +8 1019.2 996.2
10 15.01 штиль 0 н/о н/о +5.0 -5.2 48 +5 +5 1020.3 997.0
12 15.01 ЮЗ 2 н/о н/о +10.6 -9.3 24 +10 +10 1018.2 995.4
13 15.01 штиль 0 н/о н/о +11.7 -10.6 20 +12 +12 1017.4 994.7
14 15.01 ЮЗ 1 н/о н/о +11.2 -11.1 20 +12 +12 1017.5 994.7
15 15.01 штиль 0 н/о н/о +9.2 -11.0 23 +9 +9 1017.6 994.7
17 15.01 штиль 0 н/о н/о +4.3 -8.9 38 +4 +4 1019.1 995.7
16 15.01 штиль 0 н/о н/о +6.9 -10.5 28 +7 +7 1018.2 995.1
18 15.01 штиль 0 н/о н/о +2.7 -9.1 41 +3 +3 1019.8 996.3 +12.4
19 15.01 штиль 0 н/о н/о +1.8 -8.4 47 +2 +2 1020.6 997.0
20 15.01 штиль 0 н/о н/о +1.0 -8.1 51 +1 +1 1021.2 997.5
21 15.01 штиль 0 н/о н/о +0.5 -8.1 52 0 0 1021.5 997.7
23 15.01 штиль 0 н/о н/о -0.1 -7.0 60 -1 -1 1022.0 998.2
22 15.01 штиль 0 н/о н/о -0.3 -7.9 56 -1 -1 1022.0 998.2
00 16.01 штиль 0 н/о н/о -0.4 -6.9 61 -1 -1 1022.0 998.1
01 16.01 штиль 0 н/о н/о +0.1 -6.4 62 -1 -1 1021.9 998.2
02 16.01 штиль 0 н/о н/о -0.1 -6.2 63 -1 -1 1022.3 998.4
03 16.01 штиль 0 н/о н/о -1.1 -6.9 65 -2 -2 1022.1 998.2
05 16.01 штиль 0 н/о н/о -1.8 -7.0 68 -3 -3 1021.9 997.9
04 16.01 штиль 0 н/о н/о -1.8 -7.0 68 -3 -3 1021.9 998.0
06 16.01 штиль 0 н/о н/о -1.7 -6.3 71 -3 -3 1021.9 997.9 -2.6 0
07 16.01 штиль 0 н/о н/о -1.9 -6.5 71 -3 -3 1022.1 998.1
08 16.01 штиль 0 н/о н/о -1.8 -6.2 72 -3 -3 1022.6 998.6
09 16.01 штиль 0 н/о н/о -1.0 -5.5 71 -2 -2 1022.7 998.8
11 16.01 С 4 н/о н/о +4.7 -5.2 49 +1 +1 1021.1 997.7
10 16.01 штиль 0 н/о н/о +3.2 -2.8 65 +3 +3 1021.9 998.4
12 16.01 штиль 0 н/о н/о +6.5 -5.0 44 +6 +6 1019.8 996.6
13 16.01 штиль 0 н/о н/о +7.6 -6.0 37 +8 +8 1018.6 995.5
14 16.01 СЗ 2 н/о н/о +8.5 -5.1 38 +8 +8 1018.0 995.0
15 16.01 ЮЗ 1 н/о н/о +7.8 -5.8 38 +8 +8 1017.9 994.8
17 16.01 штиль 0 н/о н/о +3.7 -6.1 49 +3 +3 1018.6 995.2
16 16.01 штиль 0 н/о н/о +5.9 -6.2 41 +6 +6 1018.1 994.9
18 16.01 штиль 0 н/о н/о +2.8 -5.2 56 +2 +2 1018.9 995.4 +8.7
19 16.01 штиль 0 н/о н/о +3.1 -4.0 60 +3 +3 1019.1 995.6
20 16.01 штиль 0 н/о н/о +3.8 -3.3 60 +3 +3 1019.1 995.7
21 16.01 СЗ 2 н/о н/о +4.0 -3.4 58 +2 +2 1019.4 996.0
23 16.01 штиль 0 н/о н/о +3.8 -4.5 55 +3 +3 1019.1 995.7
22 16.01 СВ 1 н/о н/о +4.0 -3.9 56 +3 +3 1019.4 996.0
00 17.01 штиль 0 н/о н/о +3.7 -4.1 57 +3 +3 1018.8 995.4
01 17.01 С 3 н/о н/о +4.0 -4.1 56 +1 +1 1018.3 994.9
02 17.01 СЗ 2 н/о н/о +3.8 -4.3 55 +1 +1 1018.1 994.7
03 17.01 С 2 н/о н/о +3.8 -4.0 57 +2 +2 1017.6 994.2
05 17.01 С 1 н/о н/о +3.6 -4.0 58 +3 +3 1016.6 993.2
04 17.01 СЗ 3 н/о н/о +3.7 -4.4 55 0 0 1017.0 993.6
06 17.01 штиль 0 н/о н/о +3.6 -3.8 58 +3 +3 1016.6 993.2 +2.3 0
07 17.01 штиль 0 н/о н/о +3.6 -3.5 60 +3 +3 1016.5 993.1
08 17.01 С 2 н/о н/о +3.9 -3.3 59 +2 +2 1016.5 993.2
09 17.01 С 3 н/о н/о +4.5 -2.9 59 +2 +2 1016.7 993.4
11 17.01 СЗ 2 н/о н/о +4.7 -2.0 62 +3 +3 1016.1 992.8
10 17.01 С 4 н/о н/о +4.6 -2.1 62 +1 +1 1016.6 993.3
12 17.01 штиль 0 н/о н/о +4.8 -1.5 64 +4 +4 1015.0 991.8
13 17.01 штиль 0 н/о н/о +4.9 -1.9 61 +4 +4 1014.3 991.1
14 17.01 штиль 0 н/о н/о +4.7 -0.6 68 +4 +4 1013.8 990.6
15 17.01 ЮЗ 3 н/о н/о +4.4 +0.1 74 +1 +1 1013.2 990.0
17 17.01 штиль 0 н/о н/о +4.1 +0.4 77 +3 +3 1012.6 989.4
16 17.01 Ю 1 н/о н/о +4.0 +0.3 77 +3 +3 1012.6 989.4
18 17.01 штиль 0 н/о н/о +4.0 +0.3 77 +3 +3 1012.6 989.3 +5.1
19 17.01 штиль 0 н/о н/о +4.2 +0.5 77 +3 +3 1012.3 989.1
20 17.01 штиль 0 н/о н/о +3.8 +1.0 82 +3 +3 1011.8 988.6
21 17.01 штиль 0 н/о н/о +3.6 +1.4 86 +3 +3 1011.7 988.4
23 17.01 штиль 0 н/о н/о +3.4 +1.7 89 +2 +2 1011.5 988.2
22 17.01 штиль 0 н/о н/о +3.4 +1.6 88 +2 +2 1011.6 988.3
00 18.01 С 2 н/о н/о +3.4 +1.9 90 +1 +1 1011.2 987.9 2
01 18.01 СВ 2 н/о н/о +3.3 +1.2 86 +1 +1 1011.2 987.9
02 18.01 штиль 0 н/о н/о +3.1 +1.3 88 +2 +2 1011.5 988.2
03 18.01 С 2 н/о н/о +3.4 +1.9 90 +1 +1 1011.2 987.9 2
05 18.01 штиль 0 н/о н/о +2.4 +0.1 85 +1 +1 1011.0 987.6
04 18.01 С 3 н/о н/о +2.7 +1.0 89 -1 -1 1010.4 987.1
06 18.01 В 6 н/о н/о +3.8 +1.1 83 -2 -2 1011.3 988.1 +2.1 2 506
07 18.01 В 5 н/о н/о +4.1 -0.2 74 -1 -1 1011.8 988.6
08 18.01 С 5 н/о н/о +4.5 -1.4 65 0 0 1013.0 989.8
09 18.01 СВ 4 н/о н/о +5.0 -2.9 57 +1 +1 1013.5 990.3
11 18.01 СЗ 8 н/о н/о +8.9 -6.3 34 +5 +5 1013.4 990.6
10 18.01 СВ 5 н/о н/о +7.2 -2.9 49 +4 +4 1013.9 990.9
12 18.01 С 8 н/о н/о +10.3 -9.5 24 +7 +7 1013.0 990.3
13 18.01 СЗ 7 н/о н/о +10.5 -11.7 20 +8 +8 1012.7 990.0
14 18.01 С 6 н/о н/о +10.5 -12.3 19 +8 +8 1012.7 990.0
15 18.01 СЗ 5 н/о н/о +9.3 -12.1 21 +7 +7 1013.2 990.4
17 18.01 штиль 0 н/о н/о +5.7 -8.4 35 +6 +6 1015.3 992.1
16 18.01 В 2 н/о н/о +7.6 -10.8 26 +7 +7 1014.3 991.3
18 18.01 штиль 0 н/о н/о +4.6 -7.7 40 +4 +4 1016.2 992.9 +10.7
19 18.01 штиль 0 н/о н/о +3.6 -6.8 46 +3 +3 1017.2 993.8
20 18.01 штиль 0 н/о н/о +3.5 -5.8 51 +3 +3 1017.6 994.2
21 18.01 СВ 2 н/о н/о +4.3 -8.3 39 +2 +2 1018.0 994.7
23 18.01 СВ 4 н/о н/о +4.5 -8.7 38 +1 +1 1018.7 995.4
22 18.01 В 2 н/о н/о +4.9 -9.1 36 +3 +3 1018.5 995.2
00 19.01 СВ 2 н/о н/о +4.3 -9.3 36 +2 +2 1018.5 995.1
01 19.01 С 2 н/о н/о +4.0 -9.2 38 +2 +2 1018.5 995.1
02 19.01 СВ 3 н/о н/о +3.7 -9.5 37 +1 +1 1018.6 995.2
03 19.01 СВ 2 н/о н/о +3.7 -9.5 37 +2 +2 1018.3 994.9
05 19.01 С 2 н/о н/о +3.0 -9.1 41 +1 +1 1018.0 994.5
04 19.01 С 1 н/о н/о +3.3 -8.8 41 +3 +3 1018.1 994.7
06 19.01 штиль 0 н/о н/о +2.4 -8.7 44 +2 +2 1018.0 994.5 +2.2
07 19.01 штиль 0 н/о н/о +2.1 -7.9 48 +2 +2 1018.1 994.6
08 19.01 штиль 0 н/о н/о +2.5 -7.5 48 +2 +2 1018.4 994.9
09 19.01 штиль 0 н/о н/о +3.2 -7.4 46 +3 +3 1018.6 995.2
11 19.01 С 2 н/о н/о +4.5 -9.4 36 +3 +3 1018.1 994.8
10 19.01 штиль 0 н/о н/о +4.1 -8.8 38 +4 +4 1018.6 995.2
12 19.01 штиль 0 н/о н/о +4.8 -9.2 35 +5 +5 1017.5 994.2
13 19.01 штиль 0 н/о н/о +5.2 -8.4 37 +5 +5 1016.6 993.4
14 19.01 штиль 0 н/о н/о +5.4 -8.6 36 +5 +5 1015.8 992.6
15 19.01 Ю 2 н/о н/о +5.1 -8.2 38 +4 +4 1015.6 992.4
17 19.01 штиль 0 н/о н/о +3.1 -7.0 47 +3 +3 1015.8 992.4
16 19.01 штиль 0 н/о н/о +4.5 -7.4 42 +4 +4 1015.7 992.4
18 19.01 штиль 0 н/о н/о +1.9 -6.1 55 +1 +1 1016.2 992.7 +5.5
19 19.01 штиль 0 н/о н/о +0.5 -5.4 65 -0 -0 1016.4 992.8
20 19.01 штиль 0 н/о н/о -0.2 -5.1 70 -1 -1 1016.8 993.1
21 19.01 штиль 0 н/о н/о -0.8 -4.9 74 -2 -2 1017.1 993.3
23 19.01 штиль 0 н/о н/о -1.3 -4.5 79 -2 -2 1017.5 993.7
22 19.01 штиль 0 н/о н/о -1.0 -4.4 78 -2 -2 1017.3 993.5
00 20.01 штиль 0 н/о н/о -1.7 -4.7 80 -3 -3 1017.2 993.4
01 20.01 СЗ 1 н/о н/о -1.3 -4.5 79 -2 -2 1017.0 993.2
02 20.01 С 1 н/о н/о -0.3 -4.6 73 -2 -2 1016.9 993.2
03 20.01 штиль 0 н/о н/о -1.8 -6.4 71 -3 -3 1017.1 993.2
05 20.01 штиль 0 н/о н/о -3.5 -7.0 77 -4 -4 1017.0 993.0
04 20.01 СВ 1 н/о н/о -3.0 -6.9 74 -5 -5 1017.1 993.1
06 20.01 штиль 0 н/о н/о -3.5 -7.0 77 -4 -4 1017.1 993.1 -3.6 0
07 20.01 штиль 0 н/о н/о -3.8 -7.1 78 -5 -5 1017.4 993.4
08 20.01 штиль 0 н/о н/о -3.8 -7.0 78 -5 -5 1017.8 993.8
09 20.01 З 2 н/о н/о -2.8 -6.2 77 -7 -7 1017.9 994.0
11 20.01 В 1 н/о н/о +2.4 -7.1 49 +3 +3 1017.3 993.8
10 20.01 штиль 0 н/о н/о +1.4 -5.2 61 +1 +1 1017.8 994.2
12 20.01 штиль 0 н/о н/о +3.7 -7.9 42 +4 +4 1016.4 993.0
13 20.01 СЗ 2 н/о н/о +4.6 -8.3 39 +3 +3 1015.5 992.2
14 20.01 штиль 0 н/о н/о +5.1 -8.9 36 +5 +5 1014.8 991.6
15 20.01 штиль 0 н/о н/о +4.9 -9.1 36 +5 +5 1014.8 991.6
17 20.01 штиль 0 н/о н/о +0.5 -8.1 52 0 0 1016.2 992.6
16 20.01 штиль 0 н/о н/о +2.4 -9.0 43 +2 +2 1015.5 992.0
18 20.01 штиль 0 н/о н/о -0.6 -7.5 60 -1 -1 1017.0 993.2 +6.0
19 20.01 штиль 0 н/о н/о -1.2 -7.0 65 -2 -2 1017.8 994.0
20 20.01 штиль 0 н/о н/о -1.7 -7.3 66 -2 -2 1018.3 994.4
21 20.01 штиль 0 н/о н/о -2.3 -7.3 69 -3 -3 1019.0 995.0
23 20.01 штиль 0 н/о н/о -3.3 -7.5 73 -4 -4 1020.1 996.0
22 20.01 штиль 0 н/о н/о -2.7 -7.1 72 -4 -4 1019.5 995.5
00 21.01 штиль 0 н/о н/о -3.5 -7.5 74 -4 -4 1020.1 996.0
01 21.01 штиль 0 н/о н/о -3.7 -7.4 75 -5 -5 1020.0 995.9
02 21.01 штиль 0 н/о н/о -4.3 -7.8 77 -5 -5 1020.2 996.1
03 21.01 штиль 0 н/о н/о -4.3 -7.8 77 -5 -5 1020.4 996.2
05 21.01 штиль 0 н/о н/о -4.3 -7.8 77 -5 -5 1020.3 996.2
04 21.01 штиль 0 н/о н/о -4.4 -8.0 76 -5 -5 1020.5 996.3
06 21.01 штиль 0 н/о н/о -4.2 -8.0 75 -5 -5 1020.9 996.7 -4.7 0
07 21.01 штиль 0 н/о н/о -3.5 -7.9 72 -4 -4 1021.1 997.0
08 21.01 штиль 0 н/о н/о -2.3 -7.5 67 -3 -3 1021.3 997.3
09 21.01 ЮЗ 2 н/о н/о -1.2 -7.4 63 -4 -4 1021.4 997.5
11 21.01 штиль 0 н/о н/о +1.6 -6.8 54 +1 +1 1020.4 996.7
10 21.01 С 1 н/о н/о -0.5 -7.2 60 -1 -1 1021.5 997.7
12 21.01 штиль 0 н/о н/о +2.8 -7.5 47 +3 +3 1019.2 995.7
13 21.01 штиль 0 н/о н/о +3.9 -7.4 43 +4 +4 1018.0 994.6
14 21.01 штиль 0 н/о н/о +3.8 -8.4 41 +4 +4 1017.2 993.8
15 21.01 штиль 0 н/о н/о +5.1 -8.5 37 +5 +5 1016.5 993.2
17 21.01 штиль 0 н/о н/о +0.1 -8.7 52 -0 -0 1017.0 993.3
16 21.01 штиль 0 н/о н/о +2.1 -9.0 44 +2 +2 1016.7 993.2
18 21.01 штиль 0 н/о н/о -1.0 -8.3 58 -2 -2 1017.5 993.7 +5.6
19 21.01 штиль 0 н/о н/о -1.6 -8.2 61 -2 -2 1017.8 993.9
20 21.01 штиль 0 н/о н/о -2.2 -7.8 65 -3 -3 1017.9 994.0
21 21.01 штиль 0 н/о н/о -2.7 -7.9 67 -3 -3 1018.1 994.1
23 21.01 штиль 0 н/о н/о -3.3 -8.1 69 -4 -4 1018.1 994.1
22 21.01 штиль 0 н/о н/о -3.3 -8.1 69 -4 -4 1018.0 994.0
00 22.01 СВ 2 н/о н/о -3.8 -8.0 73 -7 -7 1017.7 993.7
03 22.01 В 2 н/о н/о -4.9 -8.7 75 -9 -9 1016.1 992.0
06 22.01 штиль 0 н/о н/о -4.7 -8.5 75 -6 -6 1014.7 990.7 -5.1 0

 

Местоположение метеостанции Тренто (Италия): широта 46.02 долгота 11.12 высота над уровнем моря 188 м.

В архиве по умолчанию представлена погода в Тренто за последнюю неделю. Архивные данные за месяц целиком и за предыдущие месяцы, начиная с января 2011 года, Вы можете получить, выбрав интересующий диапазон дат из раскрывающегося списка и нажав кнопку "Ввод!".


*Определитесь, кто Вы:
робот инопланетянин человек

Внимание! Время в таблицах - всемирное. Для получения местного времени необходимо прибавить поправку, которая равна 1 ч.

Смотрите также архив погоды в соседних городах и на ближайших метеорологических станциях:

Погода на Паганелле (Италия) (16 км)
Погода в Дезенцано (Италия) (59 км)
Погода на Пассо Ролле (Италия) (60 км)
Погода в Обергургле (Австрия) (62 км)
Погода в Санта-Мария-Валь-Мюстаире (Швейцария) (83 км)
Погода в Тревизо аэропорту (Италия) (85 км)
Погода в Роббие (Швейцария) (89 км)
Погода в Тревизо (Италия) (92 км)
Погода в Сан Валентино Алла Мута (Италия) (93 км)
Погода в Брешиа (Италия) (93 км)

Пояснения к столбцам:

Ветер - указаны скорость ветра в м/с - средняя за 10 мин, порывы в срок и между сроками (в фигурных скобках) и направление, откуда дует ветер: С - северный, СВ - северо-восточный, В - восточный, ЮВ - юго-восточный, Ю - южный, ЮЗ - юго-западный, З - западный, СЗ - северо-западный.
Видимость - горизонтальная дальность видимости в метрах или километрах. При видимости от 1 до 10 км при отсутствии осадков обычно наблюдается дымка, при ухудшении видимости до 1 км и менее - туман. В сухую погоду видимость может ухудшаться дымом, пылью или мглою.
Явления - указаны атмосферные явления, наблюдавшиеся в срок или в последний час перед сроком; фигурными скобками обозначены явления, наблюдавшиеся между сроками (за 1-3 часа до срока); квадратными скобками обозначены град или гололедные отложения с указанием их диаметра в мм.
Облачность - указаны через наклонную черту общая и нижняя облачность в баллах и высота нижней границы облаков в метрах; квадратными скобками обозначены формы облаков: Ci - перистые, Cs - перисто-слоистые, Cc - перисто-кучевые, Ac - высококучевые, As - высокослоистые, Sc - слоисто-кучевые, Ns - слоисто-дождевые, Cu - кучевые, Cb - кучево-дождевые. Подробнее классификацию облаков см. в Атласе облаков (PDF).
T - Температура воздуха - температура, измеренная на высоте 2 м над землей.
Td - Температура точки росы - температура, при понижении до которой содержащийся в воздухе водяной пар достигнет насыщения.
f - Относительная влажность воздуха - влажноcть воздуха, измеренная на высоте 2 м над землей.
Te - Эффективная температура - температура, которую ощущает одетый по сезону человек в тени. Характеристика душности погоды. При расчете учитывается влияние влажности воздуха и скорости ветра на теплоощущения человека.
Tes - Эффективная температура на солнце - температура, которую ощущает человек, с поправкой на солнечный нагрев. Характеристика знойности погоды. Зависит от высоты солнца над горизонтом, облачности и скорости ветра. Ночью, в пасмурную погоду, а также при ветре 12 м/с и более поправка равна нулю.
P - Атмосферное давление - приведенное к уровню моря атмосферное давление.
Po - Атмосферное давление - измеренное на уровне метеостанции атмосферное давление.
Tmin - Минимальная температура - минимум температуры воздуха на высоте 2 м над землей.
Tmax - Максимальная температура - максимум температуры воздуха на высоте 2 м над землей.
R - Количество осадков - Количество выпавших осадков за период времени, мм. При наведении курсора мыши на число - период времени, за который выпало указанное количество осадков.
R24 - Количество осадков - Количество выпавших осадков за 24 часа, мм.
S - Снежный покров - Высота снежного покрова, см. При наведении курсора мыши на число - состояние снежного покрова и степень покрытия местности в баллах.